Will Rogers World Airport Oklahoma City US
ICAO: KOKC
IATA: OKC
Category: Large
Scheduled Services: Yes

Elevation: 1295 ft
TransAlt. 18000 ft.

Airport Communications:
OKE CITY APP/DEP:120.45
ATIS:125.85
CLNC DEL:124.35
GND:121.9
ANG OPS COMD POST:22.56
ROGERS TWR:119.35

KOKC Zoom In..

If you have problems with the map follow the link
https://www.worldairports.se/pages/airport.php?
ICAO=KOKC

Runways:

(A) RW 13 length 7800 ft width 150 ft
---- / hdg 130

(B) RW 17L length 9802 ft width 150 ft
ILS 110.90 / hdg 175

(C) RW 17R length 9800 ft width 150 ft
ILS 110.70 / hdg 175

(D) RW 18 length 3078 ft width 75 ft
---- / hdg 175

(E) RW 31 length 7800 ft width 150 ft
---- / hdg 310

(F) RW 35L length 9800 ft width 150 ft
ILS 110.70 / hdg 355

(G) RW 35R length 9802 ft width 150 ft
ILS 110.90 / hdg 355

(H) RW 36 length 3078 ft width 75 ft
---- / hdg 355

Location; KOKC
Day. 22 / Time. 12.52 Zulu
* Altimeter: 29.97
* Temperature: 02° c. 35.6°f.
* Wind from: 160° Speed 16 kn with Gusts up to 25 kn.
Dewpoint: 02° c.
Visibility: 3 Statute Miles.
Clouds: Overcast 500 ft.
Conditions: Slight Drizzle.Conditions: Mist.

KOKC 221252Z 16016G25KT 3SM -DZ BR OVC005 02/02 A2997 RMK AO2 PK WND 17026/1207 SFC VIS 5 RAE30DZB30 SLP153 P0000 T00220022 $


Wind From 160°
Speed 16 kn.

 
 
jpsmedia worldairports.se 2020   terms of use